SCP
0 0 0 0 0 0 0 0 0 0 0 0 0 0 0 0 0 0 0 0 0 0 0 0 0 0 -0 0 0 0 0 -0 -0 -0 0 0 0 0 0 0 0 -0 -0 0
0 0 0 0 0 0 0 0 0 0 0 0 0 0 0 0 0 0 0 0 0 0 0 0 0 0 0 0 0 0 0 0 0 0 0 0 0 0 0 0 0 0 0 0
0 0 0 0 0 0 0 0 0 0 0 0 0 0 0 0 0 0 0 0 0 0 0 0 0 0 0 0 0 0 -0 -0 -0 0 0 0 0 0 0 0 0 0 0 0
0 0 0 0 0 0 0 0 0 0 0 0 0 0 0 0 0 0 0 0 0 0 0 0 0 0 0 0 0 -0 0 -0 -0 -0 0 -0 -0 -0 -0 -0 -0 -0 0 0
0 0 0 0 0 0 0 0 0 0 0 0 0 0 0 0 0 0 0 0 0 0 0 0 0 0 0 0 0 0 0 -0 -0 -0 0 0 0 0 0 0 0 0 0 -0
0 0 0 0 0 0 0 0 0 0 0 0 0 0 0 0 0 0 0 0 0 0 0 0 0 0 0 0 0 0 0 0 -0 -0 0 0 0 0 -0 0 0 0 -0 -0
0 0 0 0 0 0 0 0 0 0 0 0 0 0 0 0 0 0 0 0 0 0 0 0 0 0 0 0 0 0 0 0 0 0 0 0 0 -0 -0 -0 0 0 0 -0
0 0 0 0 0 0 0 0 0 0 0 0 0 0 0 0 0 0 0 0 0 0 0 0 0 0 0 0 0 0 0 0 0 0 0 -0 0 -0 -0 -0 -0 -0 0 0
0 0 0 0 0 0 0 0 0 0 0 0 0 0 0 0 0 0 0 0 0 0 0 0 0 0 0 0 0 0 0 0 0 0 0 0 0 0 -0 -0 -0 -0 -0 -0
0 0 0 0 0 0 0 0 0 0 0 0 0 0 0 0 0 0 0 0 0 0 0 0 0 0 0 0 0 0 0 0 0 0 0 0 0 0 0 0 0 0 0 0
0 0 0 0 0 0 0 0 0 0 0 0 0 0 0 0 0 0 0 0 0 0 0 0 0 0 0 0 0 0 0 0 0 0 0 0 0 0 0 0 0 0 0 0
0 0 0 0 0 0 0 0 0 0 0 0 0 0 0 0 0 0 0 0 0 0 0 0 0 0 0 0 0 0 0 0 0 0 0 0 0 0 0 0 0 0 0 0
0 0 0 0 0 0 0 0 0 0 0 0 0 0 0 0 0 0 0 0 0 0 0 0 0 0 0 0 0 0 0 0 0 0 0 0 0 0 0 0 0 0 0 0
0 0 0 0 0 0 0 0 0 0 0 0 0 0 0 0 0 0 0 0 0 0 0 0 0 0 0 0 0 0 0 0 0 0 0 0 0 0 0 0 0 0 0 0
0 0 0 0 0 0 0 0 0 0 0 0 0 0 0 0 0 0 0 0 0 0 0 0 0 0 0 0 0 0 0 0 0 0 0 0 0 0 0 0 0 0 0 0
0 0 0 0 0 0 0 0 0 0 0 0 0 0 0 0 0 0 0 0 0 0 0 0 0 0 0 0 0 0 0 0 0 0 0 0 0 0 0 0 0 0 0 0
0 0 0 0 0 0 0 0 0 0 0 0 0 0 0 0 0 0 0 0 0 0 0 0 0 0 0 0 0 0 0 0 0 0 0 0 0 0 0 0 0 0 0 0
0 0 0 0 0 0 0 0 0 0 0 0 0 0 0 0 0 0 0 0 0 0 0 0 0 0 0 0 0 0 0 0 0 0 0 0 0 0 0 0 0 0 0 0
0 0 0 0 0 0 0 0 0 0 0 0 0 0 0 0 0 0 0 0 0 0 0 0 0 0 0 0 0 0 0 0 0 0 0 0 0 0 0 0 0 0 0 0
0 0 0 0 0 0 0 0 0 0 0 0 0 0 0 0 0 0 0 0 0 0 0 0 0 0 0 0 0 0 0 0 0 0 0 0 0 0 0 0 0 0 0 0
0 0 0 0 0 0 0 0 0 0 0 0 0 0 0 0 0 0 0 0 0 0 0 0 0 0 0 0 0 0 0 0 0 0 0 0 0 0 0 0 0 0 0 0
0 0 0 0 0 0 0 0 0 0 0 0 0 0 0 0 0 0 0 0 0 0 0 0 0 0 0 0 0 0 0 0 0 0 0 0 0 0 0 0 0 0 0 0
0 0 0 0 0 0 0 0 0 0 0 0 0 0 0 0 0 0 0 0 0 0 0 0 0 0 0 0 0 0 0 0 0 0 0 0 0 0 0 0 0 0 0 0
0 0 0 0 0 0 0 0 0 0 0 0 0 0 0 0 0 0 0 0 0 0 0 0 0 0 0 0 0 0 0 0 0 0 0 0 0 0 0 0 0 0 0 0
0 0 0 0 0 0 0 0 0 0 0 0 0 0 0 0 0 0 0 0 0 0 0 0 0 0 0 0 0 0 0 0 0 0 0 0 0 0 0 0 0 0 0 0
0 0 0 0 0 0 0 0 0 0 0 0 0 0 0 0 0 0 0 0 0 0 0 0 0 0 0 0 0 0 0 0 0 0 0 0 0 0 0 0 0 0 0 0
0 0 0 0 0 0 0 0 0 0 0 0 0 0 0 0 0 0 0 0 0 0 0 0 0 0 0 0 0 0 0 0 0 0 0 0 0 0 0 0 0 0 0 0
Wind_Speed_500mb
14 16 18 27 26 26 29 37 31 41 47 39 39 38 39 26 28 31 29 25 22 18 15 9 2 6 9 13 16 23 25 28 32 35 35 35 39 44 47 53 56 60 62 66
5 11 14 22 29 31 29 39 37 41 59 37 37 11 10 12 28 35 33 30 26 22 17 12 8 8 8 9 12 21 21 27 30 33 33 35 39 45 47 51 57 60 68 70
16 8 10 23 29 35 36 38 33 36 40 25 20 21 20 16 27 35 36 34 30 26 21 18 13 12 10 11 13 18 19 26 31 32 34 37 39 41 45 53 56 61 65 66
5 8 12 2 4 11 27 28 30 40 36 35 24 14 16 15 25 33 38 36 32 28 24 21 17 15 13 13 14 17 19 25 29 31 34 35 38 42 46 50 56 61 64 66
10 18 25 31 27 19 17 28 24 29 29 5 4 10 16 16 25 32 37 36 38 34 28 24 20 17 15 13 15 16 19 22 26 28 29 31 36 39 43 47 53 58 62 63
12 12 19 6 12 11 7 20 5 9 8 15 16 9 4 28 32 34 41 38 38 36 30 27 24 20 17 16 17 19 21 22 24 25 28 31 35 39 41 44 49 54 59 62
24 14 19 11 18 19 5 7 13 13 13 24 14 8 7 33 35 36 39 40 39 36 32 28 24 22 19 19 20 21 22 22 22 25 29 31 29 32 34 36 38 41 47 54
18 15 24 25 25 13 5 9 13 17 21 33 30 17 22 40 45 45 46 44 41 39 35 30 26 23 21 20 22 22 20 21 23 25 26 27 30 33 31 30 33 36 37 40
17 16 5 41 19 36 11 16 18 20 20 27 33 31 33 40 45 47 48 46 43 40 37 33 30 25 21 22 21 19 18 19 22 22 24 26 26 28 27 30 28 31 34 36
11 17 28 27 36 25 27 30 19 17 21 27 32 34 37 42 44 45 48 49 47 43 39 36 33 29 25 24 23 20 18 19 20 21 22 24 26 27 28 28 29 31 32 32
28 21 27 29 36 37 35 30 28 25 25 28 31 35 40 46 46 45 49 49 47 45 41 37 34 31 28 25 23 19 17 18 19 18 20 24 27 25 26 32 30 26 27 29
17 22 25 22 14 17 23 30 30 30 30 28 32 36 40 43 45 46 48 49 45 40 40 39 36 33 29 26 23 19 17 16 15 15 15 15 16 20 26 26 25 28 29 24
45 19 16 17 13 11 12 17 22 26 24 26 29 33 40 42 46 47 46 46 44 42 39 39 36 33 29 26 23 20 17 15 14 13 11 12 12 11 10 20 21 21 22 25
25 18 13 21 11 18 17 18 21 20 21 23 27 32 37 41 44 47 48 46 42 41 41 40 39 36 34 29 27 24 20 18 15 13 10 10 10 10 10 9 7 11 20 23
24 22 14 11 15 16 16 16 17 18 19 22 26 32 40 44 46 51 48 46 46 42 42 42 41 39 35 32 27 23 19 16 13 11 10 9 9 8 7 8 7 7 10 19
22 18 17 16 15 16 17 18 19 19 20 22 26 31 36 39 42 47 52 52 53 52 49 47 43 40 36 33 28 23 18 14 11 8 6 7 6 5 5 5 6 8 11 16
26 19 21 20 19 19 20 17 16 17 19 22 24 29 34 39 45 51 53 52 51 46 46 44 42 39 36 31 26 21 17 13 10 7 3 2 2 2 4 5 6 8 12 19
14 9 15 12 18 19 19 18 17 18 21 21 26 31 40 48 50 54 55 53 49 45 44 44 40 38 35 31 26 21 16 12 9 6 3 2 3 5 5 6 8 8 10 19
15 11 10 10 10 12 13 14 18 20 19 20 21 27 34 40 48 53 54 52 49 48 49 46 43 38 34 30 26 21 16 13 10 7 6 7 8 8 7 7 9 11 12 15
14 11 9 9 9 9 11 12 12 15 15 16 20 26 33 39 42 47 48 49 47 45 44 45 44 40 35 30 26 20 17 14 11 10 9 10 10 9 10 11 11 12 13 16
15 12 9 10 8 11 12 11 11 12 13 16 19 25 30 36 41 44 49 44 38 36 39 41 41 40 36 31 25 21 18 14 13 12 12 12 12 12 12 13 14 14 15 17
15 14 11 10 9 10 12 13 12 10 11 16 22 26 35 43 46 45 43 37 36 37 40 42 41 37 33 28 24 20 17 15 15 15 15 14 13 13 14 14 14 15 17 18
14 17 12 9 9 12 15 15 12 9 11 17 22 30 39 45 48 49 42 33 30 37 40 42 41 36 31 27 22 19 17 16 16 17 16 15 15 15 15 15 15 16 17 19
12 14 12 14 13 15 16 18 16 13 13 18 24 31 38 43 43 40 36 33 33 36 40 38 37 35 31 25 21 18 17 16 16 16 16 16 15 15 15 15 15 16 18 19
10 11 13 13 15 17 20 20 20 19 20 22 25 27 33 37 39 41 34 28 32 37 37 36 33 31 29 23 20 17 16 15 15 16 16 15 16 16 15 15 15 17 19 21
10 10 12 15 13 16 19 21 19 22 24 25 28 31 33 33 33 31 30 31 37 38 38 37 35 31 27 22 19 16 15 15 16 16 16 16 16 16 15 15 16 18 20 22
14 14 14 14 16 16 17 18 20 22 26 25 26 30 32 36 37 36 38 40 39 38 37 36 32 29 25 21 18 15 17 17 17 17 17 17 16 15 14 15 17 18 21 23
Wind_Direction_500mb
275 271 261 264 246 217 226 244 256 275 272 276 288 300 298 283 229 209 194 187 183 178 187 196 145 76 52 42 31 41 36 35 35 34 37 38 40 44 48 51 54 56 56 58
260 219 233 254 255 246 243 247 258 264 271 283 294 288 272 246 202 203 198 190 181 179 169 170 159 120 93 68 50 50 42 47 46 46 45 50 52 54 55 58 58 59 58 56
252 198 246 264 249 221 245 249 248 260 274 299 287 276 272 231 203 199 195 185 178 173 168 169 156 133 111 89 72 67 56 60 57 55 53 54 57 58 59 59 61 59 60 58
251 171 230 253 178 224 236 256 255 257 273 288 290 284 267 228 199 191 186 179 175 170 166 164 151 139 121 105 90 79 70 67 63 58 56 55 57 58 59 58 58 58 58 58
217 220 282 281 231 218 217 273 268 259 266 276 265 247 243 199 189 186 180 175 178 179 172 165 157 145 131 119 106 96 85 75 70 66 63 63 62 61 60 59 58 58 58 58
198 237 248 71 151 163 187 283 3 244 238 189 179 249 93 177 174 173 186 185 179 175 173 173 164 156 145 136 120 104 92 82 75 74 71 67 65 62 61 61 61 60 59 57
219 237 259 254 163 164 218 327 152 200 198 183 199 272 169 169 172 186 187 181 177 176 174 168 166 159 154 140 125 106 97 92 89 85 78 76 76 76 67 63 62 59 58 58
218 231 252 173 155 214 240 155 191 202 202 204 210 212 186 183 183 182 183 180 179 178 175 173 169 162 161 150 129 112 101 95 89 83 80 78 74 70 67 58 53 52 52 49
216 216 132 181 204 213 217 214 204 205 206 215 215 204 190 186 181 182 185 183 180 181 176 175 173 165 168 157 138 125 119 109 98 87 81 73 63 59 55 55 55 51 51 47
231 230 239 233 236 235 232 235 223 218 215 217 220 210 195 182 178 178 182 186 183 180 180 179 176 170 171 164 145 135 130 113 97 84 76 69 63 59 56 49 47 51 48 45
250 266 263 259 243 245 244 235 230 236 234 228 219 211 201 187 182 181 183 184 186 183 185 184 179 176 172 165 150 144 137 121 108 91 83 73 75 74 56 58 61 55 48 47
246 251 247 275 223 250 237 232 233 236 235 227 217 211 198 189 186 183 183 184 183 182 183 186 183 178 175 168 159 157 147 134 129 107 91 84 75 63 62 62 60 63 56 63
256 273 244 235 230 226 222 226 222 224 223 215 209 200 193 189 186 184 182 181 182 181 178 181 180 178 178 174 170 168 162 150 133 110 99 91 89 87 60 18 32 43 49 42
236 222 219 229 238 232 232 230 227 220 214 208 203 195 191 188 186 184 183 182 180 180 181 181 181 183 181 177 177 175 168 158 143 130 116 101 90 75 74 78 49 16 15 23
214 216 223 216 217 218 221 217 212 206 206 201 198 194 190 187 187 184 181 181 182 181 182 183 184 185 182 178 176 173 166 161 151 137 122 104 80 67 61 52 48 24 16 1
195 202 209 208 208 210 212 212 212 211 205 201 198 194 192 190 185 181 184 190 188 188 189 187 186 184 182 179 178 178 175 169 156 136 114 92 76 68 49 40 26 7 1 2
171 192 203 212 214 217 220 218 215 213 205 201 198 190 186 184 182 186 190 191 195 197 194 190 188 186 185 184 182 182 178 175 164 149 141 117 76 37 12 7 353 3 343 353
196 184 187 206 217 217 220 219 216 218 217 212 205 204 202 202 196 191 189 187 191 193 194 192 190 188 187 187 187 189 188 189 190 195 244 301 311 320 324 325 332 341 336 331
172 170 191 213 210 198 200 210 214 214 219 220 220 216 215 209 206 199 190 190 192 193 194 192 189 189 189 189 191 195 197 199 210 235 264 294 302 304 310 317 321 326 333 332
162 170 183 188 187 192 198 205 208 207 209 212 209 205 202 207 204 194 185 192 196 200 198 192 189 189 191 195 196 199 201 210 224 250 271 286 289 289 298 301 309 321 328 332
164 172 176 186 191 173 185 193 201 202 205 206 208 205 201 194 187 183 185 188 196 200 197 195 190 192 194 199 198 206 211 222 238 259 276 278 282 283 289 299 308 316 322 327
182 181 192 190 173 172 176 173 177 191 205 201 200 201 190 182 176 178 185 195 202 196 192 191 192 195 198 194 203 212 222 236 251 266 272 273 274 279 286 297 305 312 316 320
199 201 199 195 185 187 181 175 173 187 206 204 199 192 189 188 185 184 184 194 198 197 194 194 198 193 191 202 211 221 232 245 258 265 267 269 272 276 285 293 298 305 313 320
205 205 210 197 195 191 193 186 181 181 181 186 189 193 198 193 190 188 192 204 199 193 196 198 193 195 200 208 219 227 239 253 262 267 269 271 273 279 285 290 299 308 313 321
212 202 189 194 195 195 198 195 192 188 182 187 192 199 200 201 204 200 188 194 193 194 196 191 195 198 204 215 224 233 248 262 269 272 273 275 277 280 285 292 300 307 316 324
186 179 187 191 190 196 197 195 189 192 188 187 191 194 199 201 199 189 187 190 188 194 195 193 194 200 209 219 226 242 258 272 275 274 275 274 276 280 286 295 303 311 317 321
194 192 194 197 200 199 198 193 193 196 194 194 196 197 194 191 187 186 191 190 192 193 193 195 198 204 214 220 233 252 269 274 276 276 275 274 276 282 289 295 301 309 316 323
Wind_Speed_850mb
14 16 18 27 26 26 29 37 31 41 47 39 39 38 39 26 28 31 29 25 22 18 15 9 2 6 9 13 16 23 25 28 32 35 35 35 39 44 47 53 56 60 62 66
5 11 14 22 29 31 29 39 37 41 59 37 37 11 10 12 28 35 33 30 26 22 17 12 8 8 8 9 12 21 21 27 30 33 33 35 39 45 47 51 57 60 68 70
16 8 10 23 29 35 36 38 33 36 40 25 20 21 20 16 27 35 36 34 30 26 21 18 13 12 10 11 13 18 19 26 31 32 34 37 39 41 45 53 56 61 65 66
5 8 12 2 4 11 27 28 30 40 36 35 24 14 16 15 25 33 38 36 32 28 24 21 17 15 13 13 14 17 19 25 29 31 34 35 38 42 46 50 56 61 64 66
10 18 25 31 27 19 17 28 24 29 29 5 4 10 16 16 25 32 37 36 38 34 28 24 20 17 15 13 15 16 19 22 26 28 29 31 36 39 43 47 53 58 62 63
12 12 19 6 12 11 7 20 5 9 8 15 16 9 4 28 32 34 41 38 38 36 30 27 24 20 17 16 17 19 21 22 24 25 28 31 35 39 41 44 49 54 59 62
24 14 19 11 18 19 5 7 13 13 13 24 14 8 7 33 35 36 39 40 39 36 32 28 24 22 19 19 20 21 22 22 22 25 29 31 29 32 34 36 38 41 47 54
18 15 24 25 25 13 5 9 13 17 21 33 30 17 22 40 45 45 46 44 41 39 35 30 26 23 21 20 22 22 20 21 23 25 26 27 30 33 31 30 33 36 37 40
17 16 5 41 19 36 11 16 18 20 20 27 33 31 33 40 45 47 48 46 43 40 37 33 30 25 21 22 21 19 18 19 22 22 24 26 26 28 27 30 28 31 34 36
11 17 28 27 36 25 27 30 19 17 21 27 32 34 37 42 44 45 48 49 47 43 39 36 33 29 25 24 23 20 18 19 20 21 22 24 26 27 28 28 29 31 32 32
28 21 27 29 36 37 35 30 28 25 25 28 31 35 40 46 46 45 49 49 47 45 41 37 34 31 28 25 23 19 17 18 19 18 20 24 27 25 26 32 30 26 27 29
17 22 25 22 14 17 23 30 30 30 30 28 32 36 40 43 45 46 48 49 45 40 40 39 36 33 29 26 23 19 17 16 15 15 15 15 16 20 26 26 25 28 29 24
45 19 16 17 13 11 12 17 22 26 24 26 29 33 40 42 46 47 46 46 44 42 39 39 36 33 29 26 23 20 17 15 14 13 11 12 12 11 10 20 21 21 22 25
25 18 13 21 11 18 17 18 21 20 21 23 27 32 37 41 44 47 48 46 42 41 41 40 39 36 34 29 27 24 20 18 15 13 10 10 10 10 10 9 7 11 20 23
24 22 14 11 15 16 16 16 17 18 19 22 26 32 40 44 46 51 48 46 46 42 42 42 41 39 35 32 27 23 19 16 13 11 10 9 9 8 7 8 7 7 10 19
22 18 17 16 15 16 17 18 19 19 20 22 26 31 36 39 42 47 52 52 53 52 49 47 43 40 36 33 28 23 18 14 11 8 6 7 6 5 5 5 6 8 11 16
26 19 21 20 19 19 20 17 16 17 19 22 24 29 34 39 45 51 53 52 51 46 46 44 42 39 36 31 26 21 17 13 10 7 3 2 2 2 4 5 6 8 12 19
14 9 15 12 18 19 19 18 17 18 21 21 26 31 40 48 50 54 55 53 49 45 44 44 40 38 35 31 26 21 16 12 9 6 3 2 3 5 5 6 8 8 10 19
15 11 10 10 10 12 13 14 18 20 19 20 21 27 34 40 48 53 54 52 49 48 49 46 43 38 34 30 26 21 16 13 10 7 6 7 8 8 7 7 9 11 12 15
14 11 9 9 9 9 11 12 12 15 15 16 20 26 33 39 42 47 48 49 47 45 44 45 44 40 35 30 26 20 17 14 11 10 9 10 10 9 10 11 11 12 13 16
15 12 9 10 8 11 12 11 11 12 13 16 19 25 30 36 41 44 49 44 38 36 39 41 41 40 36 31 25 21 18 14 13 12 12 12 12 12 12 13 14 14 15 17
15 14 11 10 9 10 12 13 12 10 11 16 22 26 35 43 46 45 43 37 36 37 40 42 41 37 33 28 24 20 17 15 15 15 15 14 13 13 14 14 14 15 17 18
14 17 12 9 9 12 15 15 12 9 11 17 22 30 39 45 48 49 42 33 30 37 40 42 41 36 31 27 22 19 17 16 16 17 16 15 15 15 15 15 15 16 17 19
12 14 12 14 13 15 16 18 16 13 13 18 24 31 38 43 43 40 36 33 33 36 40 38 37 35 31 25 21 18 17 16 16 16 16 16 15 15 15 15 15 16 18 19
10 11 13 13 15 17 20 20 20 19 20 22 25 27 33 37 39 41 34 28 32 37 37 36 33 31 29 23 20 17 16 15 15 16 16 15 16 16 15 15 15 17 19 21
10 10 12 15 13 16 19 21 19 22 24 25 28 31 33 33 33 31 30 31 37 38 38 37 35 31 27 22 19 16 15 15 16 16 16 16 16 16 15 15 16 18 20 22
14 14 14 14 16 16 17 18 20 22 26 25 26 30 32 36 37 36 38 40 39 38 37 36 32 29 25 21 18 15 17 17 17 17 17 17 16 15 14 15 17 18 21 23
Wind_Direction_850mb
275 271 261 264 246 217 226 244 256 275 272 276 288 300 298 283 229 209 194 187 183 178 187 196 145 76 52 42 31 41 36 35 35 34 37 38 40 44 48 51 54 56 56 58
260 219 233 254 255 246 243 247 258 264 271 283 294 288 272 246 202 203 198 190 181 179 169 170 159 120 93 68 50 50 42 47 46 46 45 50 52 54 55 58 58 59 58 56
252 198 246 264 249 221 245 249 248 260 274 299 287 276 272 231 203 199 195 185 178 173 168 169 156 133 111 89 72 67 56 60 57 55 53 54 57 58 59 59 61 59 60 58
251 171 230 253 178 224 236 256 255 257 273 288 290 284 267 228 199 191 186 179 175 170 166 164 151 139 121 105 90 79 70 67 63 58 56 55 57 58 59 58 58 58 58 58
217 220 282 281 231 218 217 273 268 259 266 276 265 247 243 199 189 186 180 175 178 179 172 165 157 145 131 119 106 96 85 75 70 66 63 63 62 61 60 59 58 58 58 58
198 237 248 71 151 163 187 283 3 244 238 189 179 249 93 177 174 173 186 185 179 175 173 173 164 156 145 136 120 104 92 82 75 74 71 67 65 62 61 61 61 60 59 57
219 237 259 254 163 164 218 327 152 200 198 183 199 272 169 169 172 186 187 181 177 176 174 168 166 159 154 140 125 106 97 92 89 85 78 76 76 76 67 63 62 59 58 58
218 231 252 173 155 214 240 155 191 202 202 204 210 212 186 183 183 182 183 180 179 178 175 173 169 162 161 150 129 112 101 95 89 83 80 78 74 70 67 58 53 52 52 49
216 216 132 181 204 213 217 214 204 205 206 215 215 204 190 186 181 182 185 183 180 181 176 175 173 165 168 157 138 125 119 109 98 87 81 73 63 59 55 55 55 51 51 47
231 230 239 233 236 235 232 235 223 218 215 217 220 210 195 182 178 178 182 186 183 180 180 179 176 170 171 164 145 135 130 113 97 84 76 69 63 59 56 49 47 51 48 45
250 266 263 259 243 245 244 235 230 236 234 228 219 211 201 187 182 181 183 184 186 183 185 184 179 176 172 165 150 144 137 121 108 91 83 73 75 74 56 58 61 55 48 47
246 251 247 275 223 250 237 232 233 236 235 227 217 211 198 189 186 183 183 184 183 182 183 186 183 178 175 168 159 157 147 134 129 107 91 84 75 63 62 62 60 63 56 63
256 273 244 235 230 226 222 226 222 224 223 215 209 200 193 189 186 184 182 181 182 181 178 181 180 178 178 174 170 168 162 150 133 110 99 91 89 87 60 18 32 43 49 42
236 222 219 229 238 232 232 230 227 220 214 208 203 195 191 188 186 184 183 182 180 180 181 181 181 183 181 177 177 175 168 158 143 130 116 101 90 75 74 78 49 16 15 23
214 216 223 216 217 218 221 217 212 206 206 201 198 194 190 187 187 184 181 181 182 181 182 183 184 185 182 178 176 173 166 161 151 137 122 104 80 67 61 52 48 24 16 1
195 202 209 208 208 210 212 212 212 211 205 201 198 194 192 190 185 181 184 190 188 188 189 187 186 184 182 179 178 178 175 169 156 136 114 92 76 68 49 40 26 7 1 2
171 192 203 212 214 217 220 218 215 213 205 201 198 190 186 184 182 186 190 191 195 197 194 190 188 186 185 184 182 182 178 175 164 149 141 117 76 37 12 7 353 3 343 353
196 184 187 206 217 217 220 219 216 218 217 212 205 204 202 202 196 191 189 187 191 193 194 192 190 188 187 187 187 189 188 189 190 195 244 301 311 320 324 325 332 341 336 331
172 170 191 213 210 198 200 210 214 214 219 220 220 216 215 209 206 199 190 190 192 193 194 192 189 189 189 189 191 195 197 199 210 235 264 294 302 304 310 317 321 326 333 332
162 170 183 188 187 192 198 205 208 207 209 212 209 205 202 207 204 194 185 192 196 200 198 192 189 189 191 195 196 199 201 210 224 250 271 286 289 289 298 301 309 321 328 332
164 172 176 186 191 173 185 193 201 202 205 206 208 205 201 194 187 183 185 188 196 200 197 195 190 192 194 199 198 206 211 222 238 259 276 278 282 283 289 299 308 316 322 327
182 181 192 190 173 172 176 173 177 191 205 201 200 201 190 182 176 178 185 195 202 196 192 191 192 195 198 194 203 212 222 236 251 266 272 273 274 279 286 297 305 312 316 320
199 201 199 195 185 187 181 175 173 187 206 204 199 192 189 188 185 184 184 194 198 197 194 194 198 193 191 202 211 221 232 245 258 265 267 269 272 276 285 293 298 305 313 320
205 205 210 197 195 191 193 186 181 181 181 186 189 193 198 193 190 188 192 204 199 193 196 198 193 195 200 208 219 227 239 253 262 267 269 271 273 279 285 290 299 308 313 321
212 202 189 194 195 195 198 195 192 188 182 187 192 199 200 201 204 200 188 194 193 194 196 191 195 198 204 215 224 233 248 262 269 272 273 275 277 280 285 292 300 307 316 324
186 179 187 191 190 196 197 195 189 192 188 187 191 194 199 201 199 189 187 190 188 194 195 193 194 200 209 219 226 242 258 272 275 274 275 274 276 280 286 295 303 311 317 321
194 192 194 197 200 199 198 193 193 196 194 194 196 197 194 191 187 186 191 190 192 193 193 195 198 204 214 220 233 252 269 274 276 276 275 274 276 282 289 295 301 309 316 323